Regional Weather Roundup
Issued by NWS Sioux Falls, SD

Home | Current Version | Previous Version | Text Only | Print | Product List | Glossary On
Versions: 1 2 3 4 5 6 7 8 9 10 11 12 13 14 15 16 17 18 19 20 21 22 23 24 25 26 27 28 29 30 31 32 33 34 35 36 37 38 39 40 41 42 43 44 45 46 47 48 49 50
000
ASUS43 KFSD 260010
RWRFSD

WEATHER ROUNDUP FOR SE SOUTH DAKOTA/SW MINNESOTA/NW IOWA
NATIONAL WEATHER SERVICE SIOUX FALLS SD
700 PM CDT SAT MAR 25 2017

NOTE: "FAIR" INDICATES FEW OR NO CLOUDS BELOW 12,000 FEET WITH NO
SIGNIFICANT WEATHER AND OR OBSTRUCTIONS TO VISIBILITY.


SDZ038>040-050-052>070-260100-
SOUTHEAST SOUTH DAKOTA

CITY           SKY/WX    TMP DP  RH WIND       PRES   REMARKS
BROOKINGS      CLOUDY    39  36  89 E10       29.99
CHAMBERLAIN    CLEAR     48  37  66 E13       29.93F
6HR MIN TEMP:  45; 6HR MAX TEMP:  55;

HURON          CLEAR     43  36  76 E15       29.98S
6HR MIN TEMP:  39; 6HR MAX TEMP:  47;

MADISON        CLOUDY    39  39 100 E13       29.99S
MITCHELL       CLOUDY    45  38  76 E9        29.98F
6HR MIN TEMP:  38; 6HR MAX TEMP:  48;

SIOUX FALLS    CLOUDY    41  38  89 E12       29.99F
6HR MIN TEMP:  41; 6HR MAX TEMP:  45;

WINNER         FAIR      54  37  52 SE20      29.90S
YANKTON        CLOUDY    41  37  87 NE10      29.97F
$$

MNZ071-072-080-081-089-090-097-098-260100-
SOUTHWEST MINNESOTA

CITY           SKY/WX    TMP DP  RH WIND       PRES   REMARKS
FAIRMONT       CLOUDY    38  36  92 NE10      30.01S
JACKSON        CLOUDY    36  36 100 NE10      30.00S FOG
LUVERNE        CLOUDY    37  36  93 E9        29.99F FOG
MARSHALL       CLOUDY    40  37  89 E12       30.03S FOG
6HR MIN TEMP:  40; 6HR MAX TEMP:  42;

MONTEVIDEO     CLOUDY    39  36  87 E8        30.06S
PIPESTONE      CLOUDY    39  34  81 E7        29.99S HAZE
REDWOOD FALLS  CLOUDY    42  34  73 E9        30.03S
TRACY          CLOUDY    40  37  89 NE9       30.02S
WINDOM         MIX PCPN  37  37 100 NE10      30.01S
WORTHINGTON    CLOUDY    37  36  96 NE12      30.00R FOG
$$

IAZ001>003-012>014-020>022-031-032-NEZ013-014-SDZ071-260100-
NORTHWEST IOWA

CITY           SKY/WX    TMP DP  RH WIND       PRES   REMARKS
CHEROKEE       CLOUDY    39  38  97 NE10      29.97S
ESTHERVILLE    CLOUDY    37  37 100 NE15      29.99R FOG
LE MARS        CLOUDY    39  37  93 NE9       29.98S FOG
ORANGE CITY    CLOUDY    37  37 100 E9        29.97S FOG
SHELDON        CLOUDY    37  37 100 E14       29.97R FOG
SIOUX CITY     CLOUDY    41  39  93 NE8       29.97S
6HR MIN TEMP:  40; 6HR MAX TEMP:  41;

SPENCER        CLOUDY    38  36  92 NE13      29.98S
6HR MIN TEMP:  38; 6HR MAX TEMP:  39;

STORM LAKE     FOG       37  37 100 NE20      29.95S VSB 1
$$

ABBREVIATIONS USED IN REMARKS
   TC - TEMPERATURE IN CELSIUS
  WCI - WIND CHILL INDEX
   HX - HEAT INDEX
  VSB - VISIBILITY





USA.gov is the U.S. government's official web portal to all federal, state and local government web resources and services.